, AK

(GMT )
Shemya

Weather History for PASY - March, 2013

Change the Weather History Date:

Monday, March 4, 2013

  Actual Average Record
Temperature  
Mean Temperature 32 °F -  
Max Temperature 36 °F 35 °F 40 °F (1972)
Min Temperature 28 °F 29 °F 1 °F (2016)
Degree Days  
Heating Degree Days 33    
Moisture  
Dew Point 26 °F    
Average Humidity 83    
Maximum Humidity 100    
Minimum Humidity 52    
Precipitation  
Precipitation 0.00 in - - ()
Sea Level Pressure  
Sea Level Pressure 29.15 in    
Wind  
Wind Speed 30 mph (SSW)    
Max Wind Speed 41 mph    
Max Gust Speed 46 mph    
Visibility 6 miles    
Events Snow    
Averages and records for this station are not official NWS values.
T = Trace of Precipitation, MM = Missing Value Source: NWS Daily Summary

Daily Weather History Graph

Daily Weather History Graph

Search for Another Location

Airport or City:

Trip Planner

Search our weather history database for the weather conditions in past years. The results will help you decide how hot, cold, wet, or windy it might be!

Date:

Astronomy

Mar. 03, 2013 Rise Set
Actual Time 9:04 AM HST 8:07 PM HST
Civil Twilight 8:30 AM HST 8:41 PM HST
Nautical Twilight 7:50 AM HST 9:21 PM HST
Astronomical Twilight 7:10 AM HST 10:01 PM HST
Moon 4:03 AM HST (3/4) 12:29 PM HST (3/4)
Length of Visible Light 12h 11m
Length of Day
11h 02m
Waning Gibbous, 50% of the Moon is Illuminated
Mar 4
Waning Gibbous
Mar 11
New
Mar 19
First Quarter
Mar 27
Full
Apr 2
Last Quarter

Hourly Weather History & Observations

Time (HST) Temp. Windchill Dew Point Humidity Pressure Visibility Wind Dir Wind Speed Gust Speed Precip Events Conditions
12:01 AM 32.0 °F 17.9 °F 30.2 °F 93% 28.98 in 1.2 mi SSW 28.8 mph 43.7 mph N/A Snow Light Snow
12:11 AM 32.0 °F 17.0 °F 30.2 °F 93% 28.99 in 1.8 mi SW 33.4 mph 43.7 mph N/A Snow Light Snow
12:14 AM 32.0 °F 17.0 °F 30.2 °F 93% 28.99 in 2.5 mi SW 33.4 mph 40.3 mph N/A Snow Light Snow
12:22 AM 32.0 °F 17.6 °F 30.2 °F 93% 28.99 in 4.0 mi SW 29.9 mph - N/A Snow Light Snow
12:56 AM 32.0 °F 16.0 °F 28.9 °F 88% 29.03 in 9.0 mi SW 39.1 mph 44.9 mph N/A Snow Light Snow
1:10 AM 32.0 °F 17.0 °F 28.4 °F 87% 29.03 in 6.0 mi SW 33.4 mph 42.6 mph N/A Snow Light Snow
1:25 AM 33.8 °F 18.1 °F 24.8 °F 70% 29.03 in 6.2 mi SW 41.4 mph 46.0 mph N/A Snow Light Snow
1:56 AM 32.0 °F 16.7 °F 21.0 °F 64% 29.06 in 10.0 mi SW 34.5 mph 41.4 mph N/A   Overcast
2:56 AM 30.9 °F 15.5 °F 23.0 °F 72% 29.09 in 9.0 mi SW 33.4 mph 40.3 mph N/A Snow Light Snow
3:06 AM 30.2 °F 14.1 °F 24.8 °F 80% 29.09 in 2.5 mi SSW 35.7 mph 46.0 mph N/A Snow Light Snow
3:18 AM 30.2 °F 15.9 °F 26.6 °F 86% 29.09 in 6.0 mi SW 26.5 mph 39.1 mph N/A Snow Light Snow
3:28 AM 30.2 °F 15.4 °F 26.6 °F 86% 29.10 in 10.0 mi SW 28.8 mph 35.7 mph N/A   Mostly Cloudy
3:40 AM 30.2 °F 15.2 °F 24.8 °F 80% 29.10 in 6.2 mi SW 29.9 mph 35.7 mph N/A Snow Light Snow
3:49 AM 30.2 °F 14.3 °F 24.8 °F 80% 29.10 in 6.0 mi SW 34.5 mph 41.4 mph N/A Snow Light Snow
3:56 AM 32.0 °F 17.9 °F 21.9 °F 66% 29.11 in 9.0 mi SSW 28.8 mph 40.3 mph N/A Snow Light Snow
4:56 AM 30.9 °F 16.2 °F 24.1 °F 76% 29.12 in 10.0 mi SW 29.9 mph 35.7 mph N/A Snow Light Snow
5:26 AM 30.2 °F 14.9 °F 24.8 °F 80% 29.12 in 1.8 mi SSW 31.1 mph 40.3 mph N/A Snow Light Snow
5:28 AM 30.2 °F 14.9 °F 24.8 °F 80% 29.12 in 1.2 mi SSW 31.1 mph 40.3 mph N/A Snow Light Snow
5:30 AM 28.4 °F 11.6 °F 26.6 °F 93% 29.11 in 1.0 mi SSW 35.7 mph 40.3 mph N/A Snow Light Snow
5:32 AM 28.4 °F 12.3 °F 26.6 °F 93% 29.12 in 0.8 mi SSW 32.2 mph 38.0 mph N/A Snow Light Snow
5:36 AM 28.4 °F 13.0 °F 26.6 °F 93% 29.12 in 1.2 mi SSW 28.8 mph 38.0 mph N/A Snow Light Snow
5:41 AM 28.4 °F 13.5 °F 26.6 °F 93% 29.11 in - SSW 26.5 mph 35.7 mph N/A Snow Light Snow
5:44 AM 30.2 °F 15.4 °F 28.4 °F 93% 29.11 in 6.2 mi SSW 28.8 mph 34.5 mph N/A Snow Light Snow
5:48 AM 30.2 °F 15.9 °F 28.4 °F 93% 29.11 in 6.2 mi South 26.5 mph 32.2 mph N/A   Mostly Cloudy
5:56 AM 30.9 °F 15.7 °F 28.0 °F 89% 29.12 in 9.0 mi South 32.2 mph 38.0 mph N/A Snow Light Snow
6:05 AM 32.0 °F 17.0 °F 26.6 °F 80% 29.11 in 6.2 mi South 33.4 mph 40.3 mph N/A   Mostly Cloudy
6:16 AM 30.2 °F 14.5 °F 26.6 °F 86% 29.10 in 6.2 mi SSW 33.4 mph 41.4 mph N/A Snow Light Snow
6:53 AM 32.0 °F 17.4 °F 26.6 °F 80% 29.10 in 10.0 mi South 31.1 mph 36.8 mph N/A   Scattered Clouds
6:56 AM 32.0 °F 18.4 °F 25.0 °F 75% 29.11 in 10.0 mi South 26.5 mph 36.8 mph N/A   Scattered Clouds
7:22 AM 33.8 °F 19.6 °F 24.8 °F 70% 29.11 in 6.2 mi South 32.2 mph 39.1 mph N/A   Mostly Cloudy
7:32 AM 32.0 °F 17.2 °F 24.8 °F 75% 29.10 in 10.0 mi South 32.2 mph 41.4 mph N/A   Mostly Cloudy
7:53 AM 30.2 °F 16.5 °F 26.6 °F 86% - - SSW 24.2 mph 31.1 mph N/A Snow Light Snow
7:56 AM 32.0 °F 16.5 °F 28.0 °F 85% - 4.0 mi SSW 35.7 mph 46.0 mph N/A Snow Light Snow
10:56 AM 30.9 °F 16.7 °F 25.0 °F 79% 29.13 in 8.0 mi South 27.6 mph - N/A Snow Light Snow
11:56 AM 33.1 °F 20.1 °F 23.0 °F 66% 29.14 in 10.0 mi SSW 25.3 mph 34.5 mph N/A   Partly Cloudy
12:46 PM 30.2 °F 15.9 °F 24.8 °F 80% 29.15 in - SSW 26.5 mph 39.1 mph N/A Snow Light Snow
12:56 PM 32.0 °F 17.9 °F 26.1 °F 79% 29.16 in 9.0 mi SSW 28.8 mph 34.5 mph N/A Snow Light Snow
1:34 PM 30.2 °F 15.2 °F 26.6 °F 86% 29.17 in 6.2 mi SW 29.9 mph 39.1 mph N/A Snow Light Snow
1:41 PM 30.2 °F 15.4 °F 26.6 °F 86% 29.16 in 6.2 mi SW 28.8 mph 35.7 mph N/A   Mostly Cloudy
1:56 PM 30.0 °F 16.0 °F 26.1 °F 85% 29.18 in 9.0 mi SW 25.3 mph - N/A   Mostly Cloudy
2:03 PM 32.0 °F 18.6 °F 26.6 °F 80% 29.17 in 10.0 mi SW 25.3 mph - N/A   Mostly Cloudy
2:56 PM 33.1 °F 19.6 °F 24.1 °F 70% 29.17 in 10.0 mi SW 27.6 mph 34.5 mph N/A   Scattered Clouds
3:56 PM 30.9 °F 17.2 °F 25.0 °F 79% 29.18 in 7.0 mi SW 25.3 mph - N/A Snow Light Snow
4:26 PM 28.4 °F 13.0 °F 24.8 °F 86% 29.18 in 1.8 mi SSW 28.8 mph 42.6 mph N/A Snow Light Snow
4:35 PM 30.2 °F 15.7 °F 26.6 °F 86% 29.18 in 4.0 mi SW 27.6 mph 34.5 mph N/A Snow Light Snow
4:56 PM 33.1 °F 19.1 °F 24.1 °F 70% 29.19 in 10.0 mi SSW 29.9 mph 38.0 mph N/A   Scattered Clouds
5:56 PM 30.0 °F 15.2 °F 26.1 °F 85% 29.21 in 2.5 mi SSW 28.8 mph 33.4 mph N/A Snow Light Snow
5:58 PM 30.2 °F 15.7 °F 26.6 °F 86% 29.20 in 4.0 mi SSW 27.6 mph 33.4 mph N/A Snow Light Snow
6:18 PM 30.2 °F 15.9 °F 24.8 °F 80% 29.21 in 2.5 mi SSW 26.5 mph 39.1 mph N/A Snow Light Snow
6:20 PM 28.4 °F 13.8 °F 26.6 °F 93% 29.21 in 1.2 mi SSW 25.3 mph 39.1 mph N/A Snow Light Snow
6:23 PM 28.4 °F 14.7 °F 26.6 °F 93% 29.21 in 0.8 mi SSW 21.9 mph 39.1 mph N/A Snow Light Snow
6:29 PM 30.2 °F 16.5 °F 28.4 °F 93% 29.21 in 1.2 mi SSW 24.2 mph 27.6 mph N/A Snow Light Snow
6:31 PM 30.2 °F 17.1 °F 28.4 °F 93% 29.21 in 2.5 mi SSW 21.9 mph 27.6 mph N/A Snow Light Snow
6:33 PM 30.2 °F 17.1 °F 26.6 °F 86% 29.21 in 5.0 mi SW 21.9 mph 27.6 mph N/A Snow Light Snow
6:56 PM 30.9 °F 16.2 °F 23.0 °F 72% 29.22 in 9.0 mi SW 29.9 mph 36.8 mph N/A   Mostly Cloudy
7:00 PM 28.4 °F 13.3 °F 23.0 °F 80% 29.22 in 1.5 mi SW 27.6 mph 36.8 mph N/A Snow Light Snow
7:02 PM 28.4 °F 14.4 °F 24.8 °F 86% 29.22 in 1.0 mi SW 23.0 mph 36.8 mph N/A Snow Light Snow
7:15 PM 28.4 °F 14.7 °F 26.6 °F 93% 29.22 in 1.5 mi WSW 21.9 mph - N/A Snow Light Snow
7:22 PM 28.4 °F 17.0 °F 26.6 °F 93% 29.22 in - SW 15.0 mph - N/A Snow Light Snow
7:26 PM 28.4 °F 15.8 °F 28.4 °F 100% 29.22 in - SW 18.4 mph - N/A Snow Light Snow
7:41 PM 30.2 °F 16.5 °F 24.8 °F 80% 29.22 in 10.0 mi SW 24.2 mph - N/A   Scattered Clouds
7:56 PM 30.0 °F 16.3 °F 26.1 °F 85% 29.23 in 9.0 mi SW 24.2 mph - N/A Snow Light Snow
8:56 PM 30.0 °F 16.6 °F 24.1 °F 79% 29.24 in 10.0 mi SSW 23.0 mph 27.6 mph N/A   Mostly Cloudy
9:20 PM 30.2 °F 17.8 °F 26.6 °F 86% 29.24 in 10.0 mi SW 19.6 mph - N/A   Mostly Cloudy
9:32 PM 30.2 °F 15.9 °F 26.6 °F 86% 29.24 in 5.0 mi SW 26.5 mph - N/A Snow Light Snow
9:56 PM 28.0 °F 15.3 °F 26.1 °F 92% 29.26 in 8.0 mi SW 18.4 mph - N/A   Overcast
10:12 PM 28.4 °F 15.1 °F 24.8 °F 86% 29.25 in 6.2 mi SW 20.7 mph - N/A   Scattered Clouds
10:56 PM 28.9 °F 16.9 °F 25.0 °F 85% 29.26 in 10.0 mi SW 17.3 mph - N/A   Partly Cloudy
11:56 PM 28.9 °F 16.1 °F 25.0 °F 85% 29.27 in 10.0 mi SSW 19.6 mph - N/A   Mostly Cloudy